Time,TemperatureF,DewpointF,PressureIn,WindDirection,WindDirectionDegrees,WindSpeedMPH,WindSpeedGustMPH,Humidity,HourlyPrecipIn,Conditions,Clouds,dailyrainin,SoftwareType,DateUTC
2013-04-07 00:00:00,27.5,12.2,30.24,West,267,0.0,0.0,52,0.00,,CLR,0.00,VWS V14.01,2013-04-07 04:00:00,
2013-04-07 00:01:00,27.5,12.2,30.24,West,267,0.0,0.0,52,0.00,,CLR,0.00,VWS V14.01,2013-04-07 04:01:00,
2013-04-07 00:06:00,27.5,12.2,30.24,West,267,0.0,0.0,52,0.00,,CLR,0.00,VWS V14.01,2013-04-07 04:06:00,
2013-04-07 00:10:00,27.3,12.0,30.24,West,267,0.0,0.0,52,0.00,,CLR,0.00,VWS V14.01,2013-04-07 04:10:00,
2013-04-07 00:11:00,27.3,12.4,30.24,West,267,0.0,0.0,53,0.00,,CLR,0.00,VWS V14.01,2013-04-07 04:11:00,
2013-04-07 00:17:00,27.3,12.9,30.23,West,267,0.0,0.0,54,0.00,,CLR,0.00,VWS V14.01,2013-04-07 04:17:00,
2013-04-07 00:20:00,27.2,12.8,30.23,West,267,0.0,0.0,54,0.00,,CLR,0.00,VWS V14.01,2013-04-07 04:20:00,
2013-04-07 00:22:00,27.2,12.8,30.23,West,267,0.0,0.0,54,0.00,,CLR,0.00,VWS V14.01,2013-04-07 04:22:00,
2013-04-07 00:27:00,27.0,12.6,30.23,West,267,0.0,0.0,54,0.00,,CLR,0.00,VWS V14.01,2013-04-07 04:27:00,
2013-04-07 00:30:00,27.0,12.6,30.23,West,267,0.0,0.0,54,0.00,,CLR,0.00,VWS V14.01,2013-04-07 04:30:00,
2013-04-07 00:32:00,27.0,13.0,30.23,West,267,0.0,0.0,55,0.00,,CLR,0.00,VWS V14.01,2013-04-07 04:32:00,
2013-04-07 00:37:00,27.0,13.0,30.23,West,267,0.0,0.0,55,0.00,,CLR,0.00,VWS V14.01,2013-04-07 04:37:00,
2013-04-07 00:40:00,26.9,12.9,30.23,West,267,0.0,0.0,55,0.00,,CLR,0.00,VWS V14.01,2013-04-07 04:40:00,
2013-04-07 00:42:00,26.9,12.9,30.23,West,267,0.0,0.0,55,0.00,,CLR,0.00,VWS V14.01,2013-04-07 04:42:00,
2013-04-07 00:47:00,26.9,13.3,30.23,West,267,0.0,0.0,56,0.00,,CLR,0.00,VWS V14.01,2013-04-07 04:47:00,
2013-04-07 00:50:00,26.9,13.3,30.23,West,267,0.0,0.0,56,0.00,,CLR,0.00,VWS V14.01,2013-04-07 04:50:00,
2013-04-07 00:53:00,26.9,13.7,30.23,West,267,0.0,0.0,57,0.00,,CLR,0.00,VWS V14.01,2013-04-07 04:53:00,
2013-04-07 00:58:00,26.7,13.1,30.23,West,267,0.0,0.0,56,0.00,,CLR,0.00,VWS V14.01,2013-04-07 04:58:00,
2013-04-07 01:00:00,26.7,13.5,30.23,West,267,0.0,0.0,57,0.00,,CLR,0.00,VWS V14.01,2013-04-07 05:00:00,
2013-04-07 01:03:00,26.7,13.5,30.23,West,267,0.0,0.0,57,0.00,,CLR,0.00,VWS V14.01,2013-04-07 05:03:00,
2013-04-07 01:08:00,26.6,13.4,30.23,West,267,0.0,0.0,57,0.00,,CLR,0.00,VWS V14.01,2013-04-07 05:08:00,
2013-04-07 01:10:00,26.6,13.4,30.23,West,267,0.0,0.0,57,0.00,,CLR,0.00,VWS V14.01,2013-04-07 05:10:00,
2013-04-07 01:14:00,26.6,13.8,30.23,West,267,0.0,0.0,58,0.00,,CLR,0.00,VWS V14.01,2013-04-07 05:14:00,
2013-04-07 01:19:00,26.4,13.2,30.22,West,267,0.0,0.0,57,0.00,,CLR,0.00,VWS V14.01,2013-04-07 05:19:00,
2013-04-07 01:20:00,26.4,13.2,30.22,West,267,0.0,0.0,57,0.00,,CLR,0.00,VWS V14.01,2013-04-07 05:20:00,
2013-04-07 01:25:00,26.4,13.2,30.22,West,267,0.0,0.0,57,0.00,,CLR,0.00,VWS V14.01,2013-04-07 05:25:00,
2013-04-07 01:30:00,26.3,13.1,30.22,West,267,0.0,0.0,57,0.00,,CLR,0.00,VWS V14.01,2013-04-07 05:30:00,
2013-04-07 01:40:00,26.3,13.1,30.22,North,0,0.0,0.0,57,0.00,,CLR,0.00,VWS V14.01,2013-04-07 05:40:00,
2013-04-07 01:50:00,26.1,13.0,30.21,North,0,0.0,0.0,57,0.00,,CLR,0.00,VWS V14.01,2013-04-07 05:50:00,
2013-04-07 02:00:00,26.0,12.9,30.21,North,0,0.0,0.0,57,0.00,,CLR,0.00,VWS V14.01,2013-04-07 06:00:00,
2013-04-07 02:10:00,25.8,12.7,30.21,West,270,0.0,1.0,57,0.00,,CLR,0.00,VWS V14.01,2013-04-07 06:10:00,
2013-04-07 02:20:00,25.8,13.5,30.20,West,270,0.0,0.0,59,0.00,,CLR,0.00,VWS V14.01,2013-04-07 06:20:00,
2013-04-07 02:30:00,25.7,13.4,30.20,West,270,0.0,0.0,59,0.00,,CLR,0.00,VWS V14.01,2013-04-07 06:30:00,
2013-04-07 02:40:00,25.7,13.4,30.20,West,270,0.0,0.0,59,0.00,,CLR,0.00,VWS V14.01,2013-04-07 06:40:00,
2013-04-07 02:50:00,25.6,13.3,30.19,West,270,0.0,0.0,59,0.00,,CLR,0.00,VWS V14.01,2013-04-07 06:50:00,
2013-04-07 03:00:00,25.6,13.3,30.19,West,270,0.0,0.0,59,0.00,,CLR,0.00,VWS V14.01,2013-04-07 07:00:00,
2013-04-07 03:10:00,25.6,13.3,30.19,West,270,0.0,0.0,59,0.00,,CLR,0.00,VWS V14.01,2013-04-07 07:10:00,
2013-04-07 03:20:00,25.4,13.1,30.19,West,270,0.0,0.0,59,0.00,,CLR,0.00,VWS V14.01,2013-04-07 07:20:00,
2013-04-07 03:30:00,25.4,13.8,30.18,West,270,0.0,0.0,61,0.00,,CLR,0.00,VWS V14.01,2013-04-07 07:30:00,
2013-04-07 03:40:00,25.4,13.8,30.18,West,270,0.0,0.0,61,0.00,,CLR,0.00,VWS V14.01,2013-04-07 07:40:00,
2013-04-07 03:50:00,25.3,13.8,30.18,West,270,0.0,0.0,61,0.00,,CLR,0.00,VWS V14.01,2013-04-07 07:50:00,
2013-04-07 04:00:00,25.3,13.8,30.18,West,270,0.0,0.0,61,0.00,,CLR,0.00,VWS V14.01,2013-04-07 08:00:00,
2013-04-07 04:10:00,25.3,13.8,30.18,West,270,0.0,0.0,61,0.00,,CLR,0.00,VWS V14.01,2013-04-07 08:10:00,
2013-04-07 04:20:00,25.3,13.8,30.18,West,270,0.0,0.0,61,0.00,,CLR,0.00,VWS V14.01,2013-04-07 08:20:00,
2013-04-07 04:30:00,25.4,13.8,30.18,West,270,0.0,0.0,61,0.00,,CLR,0.00,VWS V14.01,2013-04-07 08:30:00,
2013-04-07 04:40:00,25.4,14.2,30.18,West,270,0.0,0.0,62,0.00,,CLR,0.00,VWS V14.01,2013-04-07 08:40:00,
2013-04-07 04:50:00,25.4,14.2,30.18,West,270,0.0,1.0,62,0.00,,CLR,0.00,VWS V14.01,2013-04-07 08:50:00,
2013-04-07 05:00:00,25.3,14.1,30.18,West,270,0.0,0.0,62,0.00,,CLR,0.00,VWS V14.01,2013-04-07 09:00:00,
2013-04-07 05:10:00,25.3,14.5,30.18,West,270,0.0,0.0,63,0.00,,CLR,0.00,VWS V14.01,2013-04-07 09:10:00,
2013-04-07 05:20:00,25.3,14.5,30.18,West,270,0.0,0.0,63,0.00,,CLR,0.00,VWS V14.01,2013-04-07 09:20:00,
2013-04-07 05:30:00,25.4,14.6,30.18,West,270,0.0,0.0,63,0.00,,CLR,0.00,VWS V14.01,2013-04-07 09:30:00,
2013-04-07 05:40:00,25.6,14.8,30.18,West,270,0.0,0.0,63,0.00,,CLR,0.00,VWS V14.01,2013-04-07 09:40:00,
2013-04-07 05:50:00,25.6,14.8,30.19,West,270,0.0,0.0,63,0.00,,CLR,0.00,VWS V14.01,2013-04-07 09:50:00,
2013-04-07 06:00:00,25.8,15.0,30.19,West,270,0.0,0.0,63,0.00,,CLR,0.00,VWS V14.01,2013-04-07 10:00:00,
2013-04-07 06:10:00,25.8,15.0,30.19,West,270,0.0,0.0,63,0.00,,CLR,0.00,VWS V14.01,2013-04-07 10:10:00,
2013-04-07 06:20:00,26.0,15.1,30.19,West,270,0.0,0.0,63,0.00,,CLR,0.00,VWS V14.01,2013-04-07 10:20:00,
2013-04-07 06:30:00,26.1,15.2,30.20,West,270,0.0,0.0,63,0.00,,CLR,0.00,VWS V14.01,2013-04-07 10:30:00,
2013-04-07 06:40:00,26.4,15.5,30.20,South,180,0.0,2.0,63,0.00,,CLR,0.00,VWS V14.01,2013-04-07 10:40:00,
2013-04-07 06:50:00,26.6,17.1,30.20,South,180,0.0,2.0,67,0.00,,CLR,0.00,VWS V14.01,2013-04-07 10:50:00,
2013-04-07 07:00:00,27.0,17.5,30.21,South,180,0.0,0.0,67,0.00,,CLR,0.00,VWS V14.01,2013-04-07 11:00:00,
2013-04-07 07:10:00,27.2,17.7,30.21,South,180,0.0,1.0,67,0.00,,CLR,0.00,VWS V14.01,2013-04-07 11:10:00,
2013-04-07 07:20:00,28.1,18.6,30.22,South,180,0.0,0.0,67,0.00,,CLR,0.00,VWS V14.01,2013-04-07 11:20:00,
2013-04-07 07:30:00,29.3,19.7,30.22,SSE,158,0.0,3.0,67,0.00,,CLR,0.00,VWS V14.01,2013-04-07 11:30:00,
2013-04-07 07:40:00,29.8,20.2,30.22,SSE,158,0.0,2.0,67,0.00,,CLR,0.00,VWS V14.01,2013-04-07 11:40:00,
2013-04-07 07:50:00,31.5,22.2,30.22,SSE,158,1.0,2.0,68,0.00,,CLR,0.00,VWS V14.01,2013-04-07 11:50:00,
2013-04-07 08:00:00,32.8,22.7,30.21,South,180,2.0,3.0,66,0.00,,CLR,0.00,VWS V14.01,2013-04-07 12:00:00,
2013-04-07 08:10:00,33.8,23.7,30.21,South,180,2.0,5.0,66,0.00,,CLR,0.00,VWS V14.01,2013-04-07 12:10:00,
2013-04-07 08:20:00,34.6,24.4,30.20,South,180,2.0,3.0,66,0.00,,CLR,0.00,VWS V14.01,2013-04-07 12:20:00,
2013-04-07 08:30:00,35.8,25.6,30.20,SSE,158,2.0,5.0,66,0.00,,CLR,0.00,VWS V14.01,2013-04-07 12:30:00,
2013-04-07 08:40:00,36.6,25.6,30.20,SSE,158,4.0,7.0,64,0.00,,CLR,0.00,VWS V14.01,2013-04-07 12:40:00,
2013-04-07 08:50:00,37.6,26.5,30.19,SSE,158,1.0,2.0,64,0.00,,CLR,0.00,VWS V14.01,2013-04-07 12:50:00,
2013-04-07 09:00:00,38.6,27.5,30.18,South,180,3.0,6.0,64,0.00,,CLR,0.00,VWS V14.01,2013-04-07 13:00:00,
2013-04-07 09:10:00,39.3,28.2,30.18,South,180,2.0,7.0,64,0.00,,CLR,0.00,VWS V14.01,2013-04-07 13:10:00,
2013-04-07 09:20:00,40.5,29.3,30.19,SSE,158,2.0,6.0,64,0.00,,CLR,0.00,VWS V14.01,2013-04-07 13:20:00,
2013-04-07 09:30:00,41.3,30.1,30.17,SSE,158,2.0,7.0,64,0.00,,CLR,0.00,VWS V14.01,2013-04-07 13:30:00,
2013-04-07 09:40:00,42.1,30.8,30.17,SSE,158,2.0,7.0,64,0.00,,CLR,0.00,VWS V14.01,2013-04-07 13:40:00,
2013-04-07 09:50:00,42.5,31.2,30.17,SE,135,2.0,6.0,64,0.00,,CLR,0.00,VWS V14.01,2013-04-07 13:50:00,
2013-04-07 10:00:00,42.8,24.0,30.16,South,180,4.0,10.0,47,0.00,,CLR,0.00,VWS V14.01,2013-04-07 14:00:00,
2013-04-07 10:10:00,43.1,23.7,30.16,SSE,158,2.0,5.0,46,0.00,,CLR,0.00,VWS V14.01,2013-04-07 14:10:00,
2013-04-07 10:20:00,43.2,22.8,30.16,SSE,158,3.0,8.0,44,0.00,,CLR,0.00,VWS V14.01,2013-04-07 14:20:00,
2013-04-07 10:30:00,44.6,24.0,30.15,SSE,158,5.0,12.0,44,0.00,,CLR,0.00,VWS V14.01,2013-04-07 14:30:00,
2013-04-07 10:40:00,47.0,26.2,30.15,SSE,158,6.0,17.0,44,0.00,,CLR,0.00,VWS V14.01,2013-04-07 14:40:00,
2013-04-07 10:50:00,48.2,27.3,30.15,SSE,158,7.0,17.0,44,0.00,,CLR,0.00,VWS V14.01,2013-04-07 14:50:00,
2013-04-07 11:00:00,49.8,28.8,30.14,SE,135,5.0,11.0,44,0.00,,CLR,0.00,VWS V14.01,2013-04-07 15:00:00,
2013-04-07 11:10:00,50.4,29.3,30.14,SSE,158,5.0,14.0,44,0.00,,CLR,0.00,VWS V14.01,2013-04-07 15:10:00,
2013-04-07 11:20:00,51.4,30.2,30.13,SSE,158,4.0,12.0,44,0.00,,CLR,0.00,VWS V14.01,2013-04-07 15:20:00,
2013-04-07 11:30:00,51.7,30.5,30.12,SSE,158,7.0,12.0,44,0.00,,CLR,0.00,VWS V14.01,2013-04-07 15:30:00,
2013-04-07 11:40:00,51.6,30.4,30.12,SSE,158,6.0,16.0,44,0.00,,CLR,0.00,VWS V14.01,2013-04-07 15:40:00,
2013-04-07 11:50:00,52.0,30.8,30.11,SE,135,6.0,13.0,44,0.00,,CLR,0.00,VWS V14.01,2013-04-07 15:50:00,
2013-04-07 12:04:00,51.4,21.0,30.11,SSE,162,9.0,9.0,30,0.00,,CLR,0.00,VWS V14.01,2013-04-07 16:04:00,
2013-04-07 12:09:00,51.3,21.7,30.11,SE,140,2.0,14.0,31,0.00,,CLR,0.00,VWS V14.01,2013-04-07 16:09:00,
2013-04-07 12:15:00,51.4,22.5,30.11,South,189,5.0,15.0,32,0.00,,CLR,0.00,VWS V14.01,2013-04-07 16:15:00,
2013-04-07 12:20:00,52.8,24.5,30.09,South,179,3.0,6.0,33,0.00,,CLR,0.00,VWS V14.01,2013-04-07 16:20:00,
2013-04-07 12:25:00,53.8,26.1,30.09,SSE,155,5.0,13.0,34,0.00,,CLR,0.00,VWS V14.01,2013-04-07 16:25:00,
2013-04-07 12:31:00,53.6,23.7,30.08,SSE,168,10.0,16.0,31,0.00,,CLR,0.00,VWS V14.01,2013-04-07 16:31:00,
2013-04-07 12:36:00,53.3,25.0,30.08,SSE,158,3.0,12.0,33,0.00,,CLR,0.00,VWS V14.01,2013-04-07 16:36:00,
2013-04-07 12:41:00,53.6,25.9,30.08,SSE,162,6.0,7.0,34,0.00,,CLR,0.00,VWS V14.01,2013-04-07 16:41:00,
2013-04-07 12:46:00,53.9,26.2,30.06,SSE,164,3.0,13.0,34,0.00,,CLR,0.00,VWS V14.01,2013-04-07 16:46:00,
2013-04-07 12:51:00,53.9,26.2,30.06,SSE,160,5.0,11.0,34,0.00,,CLR,0.00,VWS V14.01,2013-04-07 16:51:00,
2013-04-07 12:56:00,54.4,27.3,30.06,SE,145,4.0,10.0,35,0.00,,CLR,0.00,VWS V14.01,2013-04-07 16:56:00,
2013-04-07 13:01:00,54.7,25.4,30.06,SSE,157,7.0,13.0,32,0.00,,CLR,0.00,VWS V14.01,2013-04-07 17:01:00,
2013-04-07 13:06:00,54.8,24.0,30.06,ESE,120,5.0,16.0,30,0.00,,CLR,0.00,VWS V14.01,2013-04-07 17:06:00,
2013-04-07 13:11:00,55.0,25.7,30.06,SSE,155,6.0,12.0,32,0.00,,CLR,0.00,VWS V14.01,2013-04-07 17:11:00,
2013-04-07 13:16:00,55.7,27.8,30.04,SSE,150,15.0,16.0,34,0.00,,CLR,0.00,VWS V14.01,2013-04-07 17:16:00,
2013-04-07 13:21:00,56.2,24.4,30.04,SSW,213,14.0,18.0,29,0.00,,CLR,0.00,VWS V14.01,2013-04-07 17:21:00,
2013-04-07 13:27:00,55.9,25.7,30.04,South,182,1.0,8.0,31,0.00,,CLR,0.00,VWS V14.01,2013-04-07 17:27:00,
2013-04-07 13:32:00,55.6,25.5,30.03,SSE,158,9.0,9.0,31,0.00,,CLR,0.00,VWS V14.01,2013-04-07 17:32:00,
2013-04-07 13:37:00,55.3,26.7,30.03,South,182,5.0,12.0,33,0.00,,CLR,0.00,VWS V14.01,2013-04-07 17:37:00,
2013-04-07 13:42:00,55.6,27.7,30.03,SE,130,5.0,13.0,34,0.00,,CLR,0.00,VWS V14.01,2013-04-07 17:42:00,
2013-04-07 13:47:00,55.7,27.1,30.02,SE,141,7.0,14.0,33,0.00,,CLR,0.00,VWS V14.01,2013-04-07 17:47:00,
2013-04-07 13:53:00,55.9,28.0,30.02,SSE,158,2.0,11.0,34,0.00,,CLR,0.00,VWS V14.01,2013-04-07 17:53:00,
2013-04-07 13:58:00,56.7,28.7,30.02,SE,145,3.0,5.0,34,0.00,,CLR,0.00,VWS V14.01,2013-04-07 17:58:00,
2013-04-07 14:03:00,56.7,27.9,30.02,South,178,4.0,8.0,33,0.00,,CLR,0.00,VWS V14.01,2013-04-07 18:03:00,
2013-04-07 14:08:00,56.6,29.3,30.02,South,189,5.0,18.0,35,0.00,,CLR,0.00,VWS V14.01,2013-04-07 18:08:00,
2013-04-07 14:14:00,56.2,27.5,30.02,SW,236,13.0,18.0,33,0.00,,CLR,0.00,VWS V14.01,2013-04-07 18:14:00,
2013-04-07 14:19:00,55.7,27.8,30.01,SSE,151,5.0,10.0,34,0.00,,CLR,0.00,VWS V14.01,2013-04-07 18:19:00,
2013-04-07 14:24:00,56.0,26.6,30.01,WSW,241,2.0,16.0,32,0.00,,CLR,0.00,VWS V14.01,2013-04-07 18:24:00,
2013-04-07 14:29:00,55.9,26.5,30.01,South,181,7.0,13.0,32,0.00,,CLR,0.00,VWS V14.01,2013-04-07 18:29:00,
2013-04-07 14:35:00,55.7,27.1,30.01,SSE,161,1.0,10.0,33,0.00,,CLR,0.00,VWS V14.01,2013-04-07 18:35:00,
2013-04-07 14:40:00,55.7,28.5,30.01,South,186,11.0,13.0,35,0.00,,CLR,0.00,VWS V14.01,2013-04-07 18:40:00,
2013-04-07 14:45:00,55.9,28.0,30.00,SE,126,2.0,14.0,34,0.00,,CLR,0.00,VWS V14.01,2013-04-07 18:45:00,
2013-04-07 14:50:00,55.7,27.8,30.00,SE,141,6.0,17.0,34,0.00,,CLR,0.00,VWS V14.01,2013-04-07 18:50:00,
2013-04-07 14:55:00,56.0,28.0,30.00,South,184,10.0,17.0,34,0.00,,CLR,0.00,VWS V14.01,2013-04-07 18:55:00,
2013-04-07 15:00:00,55.7,29.2,29.99,SSE,151,8.0,14.0,36,0.00,,CLR,0.00,VWS V14.01,2013-04-07 19:00:00,
2013-04-07 15:05:00,55.7,28.5,29.99,SSE,147,3.0,13.0,35,0.00,,CLR,0.00,VWS V14.01,2013-04-07 19:05:00,
2013-04-07 15:10:00,56.0,29.4,29.99,East,93,2.0,11.0,36,0.00,,CLR,0.00,VWS V14.01,2013-04-07 19:10:00,
2013-04-07 15:16:00,56.0,29.4,29.98,SE,133,5.0,11.0,36,0.00,,CLR,0.00,VWS V14.01,2013-04-07 19:16:00,
2013-04-07 15:21:00,56.0,29.4,29.98,SE,127,7.0,18.0,36,0.00,,CLR,0.00,VWS V14.01,2013-04-07 19:21:00,
2013-04-07 15:26:00,56.0,30.1,29.98,SE,138,3.0,10.0,37,0.00,,CLR,0.00,VWS V14.01,2013-04-07 19:26:00,
2013-04-07 15:31:00,56.5,29.2,29.98,SSE,154,12.0,12.0,35,0.00,,CLR,0.00,VWS V14.01,2013-04-07 19:31:00,
2013-04-07 15:37:00,56.7,29.4,29.98,SW,227,6.0,13.0,35,0.00,,CLR,0.00,VWS V14.01,2013-04-07 19:37:00,
2013-04-07 15:42:00,56.7,27.9,29.98,SE,145,3.0,8.0,33,0.00,,CLR,0.00,VWS V14.01,2013-04-07 19:42:00,
2013-04-07 15:47:00,56.9,28.8,29.96,ESE,121,2.0,12.0,34,0.00,,CLR,0.00,VWS V14.01,2013-04-07 19:47:00,
2013-04-07 15:52:00,56.7,29.4,29.96,South,174,7.0,11.0,35,0.00,,CLR,0.00,VWS V14.01,2013-04-07 19:52:00,
2013-04-07 15:57:00,56.2,28.9,29.96,SSE,150,11.0,13.0,35,0.00,,CLR,0.00,VWS V14.01,2013-04-07 19:57:00,
2013-04-07 16:02:00,55.6,29.8,29.95,South,175,5.0,5.0,37,0.00,,CLR,0.00,VWS V14.01,2013-04-07 20:02:00,
2013-04-07 16:08:00,55.4,29.6,29.95,East,99,7.0,24.0,37,0.00,,CLR,0.00,VWS V14.01,2013-04-07 20:08:00,
2013-04-07 16:13:00,55.3,30.1,29.95,South,169,9.0,15.0,38,0.00,,CLR,0.00,VWS V14.01,2013-04-07 20:13:00,
2013-04-07 16:18:00,55.1,30.0,29.95,NW,309,2.0,14.0,38,0.00,,CLR,0.00,VWS V14.01,2013-04-07 20:18:00,
2013-04-07 16:23:00,55.0,30.5,29.95,SSE,161,7.0,10.0,39,0.00,,CLR,0.00,VWS V14.01,2013-04-07 20:23:00,
2013-04-07 16:28:00,54.8,31.0,29.95,SSE,150,4.0,10.0,40,0.00,,CLR,0.00,VWS V14.01,2013-04-07 20:28:00,
2013-04-07 16:33:00,54.5,29.4,29.93,South,169,2.0,18.0,38,0.00,,CLR,0.00,VWS V14.01,2013-04-07 20:33:00,
2013-04-07 16:38:00,54.2,29.8,29.93,South,174,19.0,19.0,39,0.00,,CLR,0.00,VWS V14.01,2013-04-07 20:38:00,
2013-04-07 16:43:00,53.9,30.1,29.93,South,171,13.0,17.0,40,0.00,,CLR,0.00,VWS V14.01,2013-04-07 20:43:00,
2013-04-07 16:48:00,53.6,29.9,29.89,SSE,147,11.0,15.0,40,0.00,,CLR,0.00,VWS V14.01,2013-04-07 20:48:00,
2013-04-07 16:54:00,53.3,29.6,29.89,South,184,6.0,12.0,40,0.00,,CLR,0.00,VWS V14.01,2013-04-07 20:54:00,
2013-04-07 16:59:00,53.1,28.8,29.89,SSE,150,6.0,17.0,39,0.00,,CLR,0.00,VWS V14.01,2013-04-07 20:59:00,
2013-04-07 17:04:00,52.9,29.2,29.92,SE,138,6.0,17.0,40,0.00,,CLR,0.00,VWS V14.01,2013-04-07 21:04:00,
2013-04-07 17:09:00,52.9,29.2,29.92,South,175,2.0,13.0,40,0.00,,CLR,0.00,VWS V14.01,2013-04-07 21:09:00,
2013-04-07 17:15:00,52.8,30.4,29.94,SSE,168,5.0,11.0,42,0.00,,CLR,0.00,VWS V14.01,2013-04-07 21:15:00,
2013-04-07 17:20:00,52.8,29.8,29.94,SSE,161,3.0,14.0,41,0.00,,CLR,0.00,VWS V14.01,2013-04-07 21:20:00,
2013-04-07 17:25:00,52.6,30.2,29.94,SSE,158,8.0,10.0,42,0.00,,CLR,0.00,VWS V14.01,2013-04-07 21:25:00,
2013-04-07 17:31:00,52.5,29.5,29.92,SE,138,10.0,13.0,41,0.00,,CLR,0.00,VWS V14.01,2013-04-07 21:31:00,
2013-04-07 17:36:00,52.3,29.3,29.92,SE,143,5.0,18.0,41,0.00,,CLR,0.00,VWS V14.01,2013-04-07 21:36:00,
2013-04-07 17:41:00,52.2,29.8,29.92,WSW,241,7.0,20.0,42,0.00,,CLR,0.00,VWS V14.01,2013-04-07 21:41:00,
2013-04-07 17:46:00,51.9,29.5,29.92,South,171,8.0,13.0,42,0.00,,CLR,0.00,VWS V14.01,2013-04-07 21:46:00,
2013-04-07 17:52:00,51.7,29.9,29.92,ESE,107,5.0,14.0,43,0.00,,CLR,0.00,VWS V14.01,2013-04-07 21:52:00,
2013-04-07 17:57:00,51.7,29.9,29.92,SSE,152,0.0,7.0,43,0.00,,CLR,0.00,VWS V14.01,2013-04-07 21:57:00,
2013-04-07 18:02:00,51.6,29.9,29.93,South,178,2.0,8.0,43,0.00,,CLR,0.00,VWS V14.01,2013-04-07 22:02:00,
2013-04-07 18:08:00,51.6,29.9,29.93,SSW,206,7.0,10.0,43,0.00,,SCT120,0.00,VWS V14.01,2013-04-07 22:08:00,
2013-04-07 18:13:00,51.4,30.2,29.93,South,178,2.0,11.0,44,0.00,,SCT120,0.00,VWS V14.01,2013-04-07 22:13:00,
2013-04-07 18:18:00,51.3,30.7,29.93,SE,128,7.0,14.0,45,0.00,,SCT120,0.00,VWS V14.01,2013-04-07 22:18:00,
2013-04-07 18:23:00,51.3,31.2,29.93,SE,145,7.0,9.0,46,0.00,,SCT120,0.00,VWS V14.01,2013-04-07 22:23:00,
2013-04-07 18:28:00,51.1,31.6,29.93,SSE,157,10.0,12.0,47,0.00,,SCT120,0.00,VWS V14.01,2013-04-07 22:28:00,
2013-04-07 18:33:00,51.1,32.1,29.95,South,191,5.0,7.0,48,0.00,,SCT120,0.00,VWS V14.01,2013-04-07 22:33:00,
2013-04-07 18:39:00,51.0,32.0,29.95,South,182,0.0,6.0,48,0.00,,SCT120,0.00,VWS V14.01,2013-04-07 22:39:00,
2013-04-07 18:44:00,50.8,32.8,29.95,SSW,193,3.0,12.0,50,0.00,,SCT120,0.00,VWS V14.01,2013-04-07 22:44:00,
2013-04-07 18:49:00,50.7,33.7,29.92,SSW,200,0.0,6.0,52,0.00,,SCT120,0.00,VWS V14.01,2013-04-07 22:49:00,
2013-04-07 18:54:00,50.5,33.5,29.92,SSW,205,1.0,2.0,52,0.00,,SCT120,0.00,VWS V14.01,2013-04-07 22:54:00,
2013-04-07 19:00:00,50.5,34.0,29.92,SSE,150,3.0,7.0,53,0.00,,SCT120,0.00,VWS V14.01,2013-04-07 23:00:00,
2013-04-07 19:05:00,50.4,34.4,29.93,South,182,3.0,6.0,54,0.00,,SCT120,0.00,VWS V14.01,2013-04-07 23:05:00,
2013-04-07 19:10:00,50.1,35.9,29.93,SW,222,5.0,7.0,58,0.00,,SCT120,0.00,VWS V14.01,2013-04-07 23:10:00,
2013-04-07 19:15:00,49.6,35.9,29.93,South,189,2.0,8.0,59,0.00,,-RA,0.00,VWS V14.01,2013-04-07 23:15:00,
2013-04-07 19:20:00,49.5,36.2,29.93,ENE,69,1.0,3.0,60,0.00,,-RA,0.00,VWS V14.01,2013-04-07 23:20:00,
2013-04-07 19:25:00,49.2,36.3,29.93,West,278,6.0,7.0,61,0.00,,-RA,0.00,VWS V14.01,2013-04-07 23:25:00,
2013-04-07 19:30:00,49.1,36.7,29.95,SW,215,0.0,3.0,62,0.00,,-RA,0.00,VWS V14.01,2013-04-07 23:30:00,
2013-04-07 19:36:00,48.9,36.9,29.95,South,178,5.0,6.0,63,0.00,,-RA,0.00,VWS V14.01,2013-04-07 23:36:00,
2013-04-07 19:41:00,48.8,36.8,29.95,SSW,198,2.0,7.0,63,0.00,,-RA,0.00,VWS V14.01,2013-04-07 23:41:00,
2013-04-07 19:46:00,48.6,37.0,29.95,SSE,162,2.0,7.0,64,0.00,,-RA,0.00,VWS V14.01,2013-04-07 23:46:00,
2013-04-07 19:52:00,48.5,36.9,29.95,ESE,120,4.0,7.0,64,0.00,,-RA,0.00,VWS V14.01,2013-04-07 23:52:00,
2013-04-07 19:57:00,48.5,37.3,29.95,SSE,157,1.0,6.0,65,0.00,,-RA,0.00,VWS V14.01,2013-04-07 23:57:00,
2013-04-07 20:02:00,48.3,37.5,29.94,South,171,3.0,13.0,66,0.00,,-RA,0.00,VWS V14.01,2013-04-08 00:02:00,
2013-04-07 20:07:00,48.2,37.4,29.94,SSW,213,6.0,7.0,66,0.00,,CLR,0.00,VWS V14.01,2013-04-08 00:07:00,
2013-04-07 20:13:00,48.0,37.2,29.94,South,172,2.0,6.0,66,0.00,,CLR,0.00,VWS V14.01,2013-04-08 00:13:00,
2013-04-07 20:18:00,47.9,37.5,29.93,SE,127,1.0,3.0,67,0.00,,CLR,0.00,VWS V14.01,2013-04-08 00:18:00,
2013-04-07 20:23:00,47.7,37.7,29.93,South,169,1.0,7.0,68,0.00,,CLR,0.00,VWS V14.01,2013-04-08 00:23:00,
2013-04-07 20:28:00,47.6,37.6,29.93,SSE,165,2.0,9.0,68,0.00,,CLR,0.00,VWS V14.01,2013-04-08 00:28:00,
2013-04-07 20:34:00,47.4,37.8,29.94,SSW,205,3.0,3.0,69,0.00,,CLR,0.00,VWS V14.01,2013-04-08 00:34:00,
2013-04-07 20:39:00,47.4,37.8,29.94,SSE,161,0.0,6.0,69,0.00,,CLR,0.00,VWS V14.01,2013-04-08 00:39:00,
2013-04-07 20:44:00,47.3,37.7,29.94,South,178,0.0,5.0,69,0.00,,CLR,0.00,VWS V14.01,2013-04-08 00:44:00,
2013-04-07 20:49:00,47.3,37.7,29.93,South,184,7.0,11.0,69,0.00,,CLR,0.00,VWS V14.01,2013-04-08 00:49:00,
2013-04-07 20:54:00,47.3,38.0,29.93,SSW,198,7.0,11.0,70,0.00,,CLR,0.00,VWS V14.01,2013-04-08 00:54:00,
2013-04-07 21:00:00,47.1,37.8,29.93,WSW,237,5.0,6.0,70,0.00,,CLR,0.00,VWS V14.01,2013-04-08 01:00:00,
2013-04-07 21:05:00,47.1,37.8,29.93,ENE,65,0.0,6.0,70,0.00,,CLR,0.00,VWS V14.01,2013-04-08 01:05:00,
2013-04-07 21:10:00,47.0,38.1,29.93,South,179,0.0,6.0,71,0.00,,CLR,0.00,VWS V14.01,2013-04-08 01:10:00,
2013-04-07 21:15:00,47.0,38.1,29.93,South,176,0.0,1.0,71,0.00,,CLR,0.00,VWS V14.01,2013-04-08 01:15:00,
2013-04-07 21:21:00,46.8,37.9,29.93,North,359,1.0,3.0,71,0.00,,CLR,0.00,VWS V14.01,2013-04-08 01:21:00,
2013-04-07 21:26:00,46.8,38.3,29.93,SSE,161,0.0,1.0,72,0.00,,CLR,0.00,VWS V14.01,2013-04-08 01:26:00,
2013-04-07 21:32:00,46.7,38.2,29.93,South,191,0.0,4.0,72,0.00,,CLR,0.00,VWS V14.01,2013-04-08 01:32:00,
2013-04-07 21:38:00,46.7,38.2,29.93,South,188,3.0,13.0,72,0.00,,CLR,0.00,VWS V14.01,2013-04-08 01:38:00,
2013-04-07 21:43:00,46.7,38.5,29.93,SE,134,0.0,7.0,73,0.00,,CLR,0.00,VWS V14.01,2013-04-08 01:43:00,
2013-04-07 21:49:00,46.5,38.7,29.93,SE,124,0.0,1.0,74,0.00,,CLR,0.00,VWS V14.01,2013-04-08 01:49:00,
2013-04-07 21:54:00,46.5,38.7,29.93,WSW,246,2.0,3.0,74,0.00,,CLR,0.00,VWS V14.01,2013-04-08 01:54:00,
2013-04-07 22:00:00,46.5,38.7,29.93,SW,230,0.0,1.0,74,0.00,,CLR,0.00,VWS V14.01,2013-04-08 02:00:00,
2013-04-07 22:05:00,46.4,38.9,29.93,South,189,5.0,5.0,75,0.00,,CLR,0.00,VWS V14.01,2013-04-08 02:05:00,
2013-04-07 22:10:00,46.4,38.9,29.93,SW,224,9.0,12.0,75,0.00,,CLR,0.00,VWS V14.01,2013-04-08 02:10:00,
2013-04-07 22:16:00,46.4,39.3,29.93,South,191,0.0,2.0,76,0.00,,CLR,0.00,VWS V14.01,2013-04-08 02:16:00,
2013-04-07 22:21:00,46.4,39.3,29.93,South,191,0.0,0.0,76,0.00,,CLR,0.00,VWS V14.01,2013-04-08 02:21:00,
2013-04-07 22:26:00,46.4,39.3,29.93,SSW,192,0.0,2.0,76,0.00,,CLR,0.00,VWS V14.01,2013-04-08 02:26:00,
2013-04-07 22:31:00,46.2,39.1,29.93,SSW,205,1.0,4.0,76,0.00,,CLR,0.00,VWS V14.01,2013-04-08 02:31:00,
2013-04-07 22:36:00,46.2,39.1,29.93,SSW,205,3.0,3.0,76,0.00,,CLR,0.00,VWS V14.01,2013-04-08 02:36:00,
2013-04-07 22:41:00,46.2,39.1,29.93,SSW,203,2.0,2.0,76,0.00,,CLR,0.00,VWS V14.01,2013-04-08 02:41:00,
2013-04-07 22:47:00,46.1,39.3,29.92,SSW,203,1.0,1.0,77,0.00,,CLR,0.00,VWS V14.01,2013-04-08 02:47:00,
2013-04-07 22:52:00,46.0,39.2,29.92,South,189,2.0,7.0,77,0.00,,CLR,0.00,VWS V14.01,2013-04-08 02:52:00,
2013-04-07 22:57:00,46.0,39.5,29.92,South,189,0.0,2.0,78,0.00,,CLR,0.00,VWS V14.01,2013-04-08 02:57:00,
2013-04-07 23:02:00,46.0,39.5,29.92,South,189,0.0,0.0,78,0.00,,CLR,0.00,VWS V14.01,2013-04-08 03:02:00,
2013-04-07 23:07:00,45.8,39.3,29.92,SSW,192,0.0,2.0,78,0.00,,FEW100,0.00,VWS V14.01,2013-04-08 03:07:00,
2013-04-07 23:13:00,45.7,39.2,29.92,SSW,192,0.0,1.0,78,0.00,,FEW100,0.00,VWS V14.01,2013-04-08 03:13:00,
2013-04-07 23:18:00,45.5,39.0,29.92,SSW,192,0.0,0.0,78,0.00,,FEW100,0.00,VWS V14.01,2013-04-08 03:18:00,
2013-04-07 23:23:00,45.4,39.0,29.92,SSW,192,0.0,0.0,78,0.00,,FEW100,0.00,VWS V14.01,2013-04-08 03:23:00,
2013-04-07 23:29:00,45.2,38.8,29.92,SSW,192,0.0,0.0,78,0.00,,FEW100,0.00,VWS V14.01,2013-04-08 03:29:00,
2013-04-07 23:34:00,44.9,38.5,29.92,SSW,192,0.0,0.0,78,0.00,,FEW100,0.00,VWS V14.01,2013-04-08 03:34:00,
2013-04-07 23:39:00,44.9,38.8,29.92,SSW,199,0.0,3.0,79,0.00,,FEW100,0.00,VWS V14.01,2013-04-08 03:39:00,
2013-04-07 23:44:00,44.6,38.5,29.92,SSW,199,0.0,0.0,79,0.00,,FEW100,0.00,VWS V14.01,2013-04-08 03:44:00,
2013-04-07 23:50:00,44.5,38.7,29.92,SSW,199,1.0,1.0,80,0.00,,FEW100,0.00,VWS V14.01,2013-04-08 03:50:00,
2013-04-07 23:55:00,44.3,38.5,29.92,WSW,244,0.0,3.0,80,0.00,,FEW100,0.00,VWS V14.01,2013-04-08 03:55:00,